www.pogodaiklimat.ru
Время
(UTC), дата
21 7.12
00 8.12
03 8.12
06 8.12
09 8.12
12 8.12
15 8.12
18 8.12
21 8.12
00 9.12
03 9.12
06 9.12
09 9.12
12 9.12
15 9.12
18 9.12
21 9.12
00 10.12
03 10.12
06 10.12
09 10.12
12 10.12
15 10.12
18 10.12
21 10.12
00 11.12
03 11.12
06 11.12
09 11.12
12 11.12
15 11.12
18 11.12
21 11.12
00 12.12
03 12.12
06 12.12
09 12.12
12 12.12
15 12.12
18 12.12
21 12.12
00 13.12
03 13.12
06 13.12
09 13.12
12 13.12
15 13.12
18 13.12
21 13.12
00 14.12
03 14.12
06 14.12
09 14.12
12 14.12
15 14.12
18 14.12
Ветер
(напр.,м/с)
Видим. Явления Облачность Т
(С)
Тd
(С)
f
(%)
Тe
(С)
Тes
(С)
Комфортность P
(гПа)
Po
(гПа)
Тmin
(С)
Tmax
(С)
R
(мм)
R24
(мм)
S
(см)
СЗ 6 24 км ясно -5.3 -11.9 60 -13 -13 очень
холодно
1021.1 1002.7
СЗ 3 24 км 8/8 1000 м
[Sc]
-7.2 -12.0 69 -13 -13 очень
холодно
1023.2 1004.7 -7.3 -3.0 1.0
СЗ 5 24 км ясно -8.0 -12.9 68 -15 -15 очень
холодно
1024.9 1006.4
З 4 24 км ясно -9.0 -12.7 74 -15 -15 очень
холодно
1025.4 1006.9 -9.1 -3.0 1.0 191
З 5 24 км 10/10 1000 м
[]
-8.6 -11.4 80 -16 -16 очень
холодно
1026.0 1007.5
З 4 24 км {снег} 3/3 600 м
[Sc]
-9.0 -12.2 78 -15 -15 очень
холодно
1028.1 1009.5 -9.7 -3.0 0.0 0.0
З 6 24 км 5/5 600 м
[]
-6.4 -10.3 74 -14 -14 очень
холодно
1029.3 1010.7
З 8 24 км {снег} 1/1 600 м
[Cu hum]
-4.0 -11.7 55 -12 -12 очень
холодно
1028.9 1010.3 -9.7 -4.0 0.0 0.0 8
З 3 24 км 3/3 600 м
[]
-5.6 -10.0 71 -11 -11 холодно 1030.0 1011.4
ЮЗ 5 24 км 9/0
[As trans]
-3.9 -7.8 74 -11 -11 холодно 1030.8 1012.2 -9.7 -3.5 0.0
Ю 4 24 км 10/0
[]
-3.3 -6.1 81 -9 -9 прохладно 1030.2 1011.7
Ю 4 24 км 10/0
[Ac und]
-1.2 -2.6 90 -7 -7 по сезону 1028.3 1009.9 -9.7 -1.2 0.0 161
ЮЗ 5 24 км 10/10 600 м
[]
+1.7 -0.9 83 -4 -4 по сезону 1027.7 1009.3
ЮЗ 9 24 км 10/9 600 м
[Sc Ac As]
+4.0 +1.0 81 -2 -2 по сезону 1027.3 1009.0 -4.5 -1.2 0.0 8
ЮЗ 7 24 км 10/10 300 м
[]
+5.4 +3.1 85 -0 -0 тепло 1027.9 1009.6
ЮЗ 8 24 км {дождь} 10/10 300 м
[Sc]
+6.5 +4.3 86 +1 +1 тепло 1026.0 1007.8 -6.3 +6.5 0.0 0.0 8
Ю 7 12 км 10/10 300 м
[]
+6.9 +5.5 91 +2 +2 тепло 1026.3 1008.2
Ю 6 16 км слаб. дождь 10/10 1000 м
[St Cc]
+6.7 +6.3 97 +2 +2 тепло 1024.1 1006.1 -1.3 +7.2 0.7 0.7
Ю 10 12 км 10/10 200 м
[]
+9.1 +8.7 97 +4 +4 тепло 1019.6 1001.7
Ю 14 24 км {дождь} 10/10 200 м
[Sc]
+10.8 +9.6 92 +6 +6 тепло 1014.4 996.6 -1.3 +10.8 4 4.5 42
Ю 13 3200 м 10/10 100 м
[]
+11.5 +10.9 96 +7 +7 тепло 1009.0 991.5
ЮЗ 15 6000 м слаб. дождь 10/10 200 м
[Frnb]
+12.3 +11.8 97 +8 +8 тепло 1007.1 989.6 +6.7 +10.8 31 35.5
ЮЗ 9 3200 м 10/10 50 м
[]
+11.7 +11.6 99 +8 +8 тепло 1008.3 990.8
Ю 7 800 м туман {дождь} н/о +11.5 +11.5 100 +8 +8 тепло 1007.5 990.0 +6.4 +12.8 1 36.7
Ю 7 200 м н/о +10.9 +10.9 100 +7 +7 тепло 1007.5 990.0
ЮЗ 8 6000 м слаб. дождь {туман} 10/10 50 м
[St]
+11.2 +11.2 100 +7 +7 тепло 1007.2 989.8 +10.4 +12.3 0.7 36.7
ЮЗ 6 1600 м н/о +10.7 +10.7 100 +7 +7 тепло 1008.5 991.0
ЮЗ 6 19 км {дождь, туман} 10/10 200 м
[St]
+10.6 +10.3 98 +7 +7 тепло 1009.6 992.1 +10.4 +12.8 1 34.3 113
СЗ 8 16 км 10/10 200 м
[]
+3.4 +2.7 95 -3 -3 по сезону 1013.8 996.0
СЗ 6 6000 м ледяной дождь (гололёд) 10/10 100 м
[Frnb]
-0.1 -0.1 100 -7 -7 по сезону 1017.2 999.3 -0.1 +12.8 2 4.9
С 5 2400 м 10/10 100 м
[]
-1.3 -1.3 100 -8 -8 по сезону 1019.7 1001.7
С 5 1600 м слаб. снег {дождь} 10/10 100 м
[Frnb]
-2.3 -2.3 100 -9 -9 прохладно 1019.2 1001.2 -2.3 +10.7 5 8.3 4
С 4 2400 м 10/10 200 м
[]
-4.2 -4.2 100 -11 -11 холодно 1020.5 1002.3
С 4 24 км слаб. снег 10/10 100 м
[Cu hum]
-4.8 -5.1 98 -11 -11 прохладно 1021.7 1003.4 -4.8 -0.1 4 11.4 8
С 2 24 км 10/10 300 м
[]
-5.9 -6.5 96 -10 -10 прохладно 1022.6 1004.3
Ю 1 24 км {снег} 10/10 600 м
[Sc]
-5.7 -6.1 97 -8 -8 по сезону 1023.0 1004.6 -6.6 +10.7 0.0 10.0 71
ЮЗ 3 24 км 1/1 600 м
[]
-7.4 -7.5 99 -13 -13 холодно 1024.3 1005.8
З 6 24 км в посл. час ливневой снег 1/1 1500 м
[Cu hum]
-5.3 -5.7 97 -13 -13 холодно 1026.1 1007.6 -7.6 +10.7 0.2 8.6 8
З 9 24 км 6/6 1000 м
[]
-4.8 -8.8 74 -14 -14 очень
холодно
1029.5 1011.0
З 10 24 км в посл. час ливневой снег 3/3 600 м
[Cu hum]
-5.6 -11.9 61 -15 -15 очень
холодно
1031.4 1012.8 -7.6 -4.5 0.0 4.0 8
СЗ 6 24 км ясно -7.4 -12.3 68 -15 -15 очень
холодно
1035.0 1016.3
З 4 24 км ясно -8.6 -12.3 75 -15 -15 очень
холодно
1037.9 1019.2 -8.6 -4.5 0.2
СЗ 1 24 км 3/0
[]
-9.4 -12.9 76 -12 -12 холодно 1039.7 1020.9
СВ 1 24 км 5/0
[]
-9.4 -13.1 74 -12 -12 прохладно 1039.6 1020.8 -11.4 -4.5 0.2 161
ЮВ 2 24 км 9/0
[]
-10.9 -13.8 79 -15 -15 холодно 1040.0 1021.1
ЮВ 4 24 км 3/0
[Ci fib]
-10.2 -14.6 70 -17 -17 очень
холодно
1041.0 1022.1 -11.7 -4.5 0.0 8
ЮВ 3 24 км 9/0
[]
-6.4 -9.5 79 -12 -11 холодно 1040.3 1021.5
Ю 5 24 км 9/1 600 м
[Sc Ac As Ci fib]
-1.2 -5.1 75 -7 -7 по сезону 1037.5 1018.8 -11.7 -1.2
Ю 2 24 км 9/9 600 м
[]
-2.5 -4.9 84 -7 -7 по сезону 1036.4 1017.7
ЮВ 3 24 км 9/9 600 м
[Sc]
-2.4 -4.3 87 -8 -8 по сезону 1035.4 1016.7 -11.7 -1.0
ЮВ 3 9000 м 10/10 200 м
[]
-0.5 -0.5 100 -5 -5 по сезону 1033.3 1014.8
ЮВ 5 8000 м слаб. снег {дождь} 10/10 100 м
[Frnb]
+0.7 +0.7 100 -6 -6 по сезону 1031.6 1013.2 -11.7 +1.1 0.2 0.2 6
ЮВ 5 12 км 10/10 300 м
[]
+1.5 +1.5 100 -5 -5 по сезону 1029.3 1011.0
ЮВ 8 9000 м дымка {снег, дождь} 10/10 100 м
[St]
+1.6 +1.6 100 -6 -6 по сезону 1026.2 1007.9 -3.1 +1.1 0.2 0.4 5
В 7 9000 м 10/10 50 м
[]
+2.2 +2.2 100 -4 -4 по сезону 1022.2 1004.0
В 10 4800 м слаб. дождь 10/1 50 м
[Sc As op]
+3.8 +3.8 100 -3 -3 по сезону 1011.7 993.8 -3.7 +3.8 11 11.2 1
Местоположение метеостанции Галифакс (Новая Шотландия, Канада): широта 44.88 долгота -63.51 высота над уровнем моря 145 м.
В архиве по умолчанию представлена погода в Галифаксе за последнюю неделю. Архивные данные за месяц целиком и за предыдущие месяцы, начиная с января 2011 года, Вы можете получить, выбрав интересующий диапазон дат из раскрывающегося списка и нажав кнопку "Найти!".
*Определитесь, кто Вы:
Внимание! Время в таблицах - всемирное. Для получения местного времени необходимо прибавить поправку, которая равна -4 ч.
Смотрите также архив погоды в соседних городах и на ближайших метеорологических станциях:
Партнеры нашего сайта:      
Пояснения к столбцам:
  • Ветер - указаны скорость ветра в м/с - средняя за 10 мин, порывы в срок и между сроками (в фигурных скобках) и направление, откуда дует ветер: С - северный,
  • СВ - северо-восточный, В - восточный, ЮВ - юго-восточный, Ю - южный, ЮЗ - юго-западный, З - западный, СЗ - северо-западный.
  • Видимость - горизонтальная дальность видимости в метрах или километрах. При видимости от 1 до 10 км при отсутствии осадков обычно наблюдается дымка, при ухудшении видимости до 1 км и менее - туман. В сухую погоду видимость может ухудшаться дымом, пылью или мглою.
  • Явления - указаны атмосферные явления, наблюдавшиеся в срок или в последний час перед сроком; фигурными скобками обозначены явления, наблюдавшиеся между сроками (за 1-3 часа до срока); квадратными скобками обозначены град или гололедные отложения с указанием их диаметра в мм.
  • Облачность - указаны через наклонную черту общая и нижняя облачность в баллах и высота нижней границы облаков в метрах; квадратными скобками обозначены формы облаков: Ci - перистые, Cs - перисто-слоистые, Cc - перисто-кучевые, Ac - высококучевые, As - высокослоистые, Sc - слоисто-кучевые, Ns - слоисто-дождевые, Cu - кучевые, Cb - кучево-дождевые. Подробнее классификацию облаков см. в Атласе облаков (PDF).
  • T - Температура воздуха - температура, измеренная на высоте 2 м над землей.
  • Td - Температура точки росы - температура, при понижении до которой содержащийся в воздухе водяной пар достигнет насыщения.
  • f - Относительная влажность воздуха - влажноcть воздуха, измеренная на высоте 2 м над землей.
  • Te - Эффективная температура - температура, которую ощущает одетый по сезону человек в тени. Характеристика душности погоды. При расчете учитывается влияние влажности воздуха и скорости ветра на теплоощущения человека.
  • Tes - Эффективная температура на солнце - температура, которую ощущает человек, с поправкой на солнечный нагрев. Характеристика знойности погоды. Зависит от высоты солнца над горизонтом, облачности и скорости ветра. Ночью, в пасмурную погоду, а также при ветре 12 м/с и более поправка равна нулю.
  • P - Атмосферное давление - приведенное к уровню моря атмосферное давление.
  • Po - Атмосферное давление - измеренное на уровне метеостанции атмосферное давление.
  • Tmin - Минимальная температура - минимум температуры воздуха на высоте 2 м над землей.
  • Tmax - Максимальная температура - максимум температуры воздуха на высоте 2 м над землей.
  • R - Количество осадков - Количество выпавших осадков за период времени, мм. При наведении курсора мыши на число - период времени, за который выпало указанное количество осадков.
  • R24 - Количество осадков - Количество выпавших осадков за 24 часа, мм.
  • S - Снежный покров - Высота снежного покрова, см. При наведении курсора мыши на число - состояние снежного покрова и степень покрытия местности в баллах.